Probability
0 0 0 0 0 0 0 0 0 0 0 0 0 0 0 0 0 0 1 2 4 4 4 5 9 12 11 8 4 1 0 0 0 0 0 0 0 0 0 0 0 0 0 0 0 0 0 0 0
0 0 0 0 0 0 0 0 0 0 0 0 0 0 0 0 0 0 1 2 3 5 5 6 9 12 12 9 5 1 0 0 0 0 0 0 0 0 0 0 0 0 0 0 0 0 0 0 0
0 0 0 0 0 0 0 0 0 0 0 0 0 0 0 0 0 0 1 2 2 5 6 7 9 12 12 11 7 3 1 0 0 0 0 0 0 0 0 0 0 0 0 0 0 0 0 0 0
0 0 0 0 0 0 0 0 0 0 0 0 0 0 0 0 0 1 2 1 1 3 6 7 9 11 12 11 9 6 3 1 0 0 0 0 0 0 0 0 0 0 0 0 0 0 0 0 0
0 0 0 0 0 0 0 0 0 0 0 0 0 0 0 0 1 3 3 2 1 3 6 9 9 10 10 10 10 8 5 3 1 0 0 0 0 0 0 1 1 1 0 0 0 0 0 0 0
0 0 0 0 0 0 0 0 0 0 0 0 0 0 0 0 1 3 4 2 2 4 8 9 9 9 8 8 8 7 6 4 2 0 0 0 0 0 0 1 1 1 0 0 0 0 0 0 0
0 0 0 0 0 0 0 0 0 0 0 0 0 0 0 0 1 3 3 2 3 5 8 10 9 8 7 7 6 4 4 4 2 1 0 0 0 0 0 0 0 0 0 0 0 0 0 0 0
0 0 0 0 0 0 0 0 0 0 0 0 0 0 0 0 1 1 1 1 2 5 7 9 8 7 7 6 4 2 2 2 1 0 0 0 0 0 0 0 0 0 0 0 0 0 0 0 0
0 0 0 0 0 0 0 0 0 0 0 0 0 0 0 0 0 0 0 0 1 3 5 6 7 8 7 7 5 2 1 1 1 0 0 0 0 0 0 0 0 0 0 0 0 0 0 0 0
0 0 0 0 0 0 0 0 0 0 0 0 0 0 0 0 0 0 0 0 0 1 3 4 6 7 8 7 6 5 3 3 2 1 1 0 0 0 0 0 0 0 0 0 0 0 0 0 0
0 0 0 0 0 0 0 0 0 0 0 0 0 0 0 0 0 0 0 0 0 1 2 4 5 6 7 7 7 6 5 4 3 3 2 1 0 0 0 0 0 0 0 0 0 0 0 0 0
0 0 0 0 0 0 0 0 0 0 0 0 0 0 0 0 0 0 0 0 0 0 1 2 4 5 6 6 6 6 6 5 4 4 3 1 0 0 0 0 0 0 0 0 0 0 0 0 0
0 0 0 0 0 0 0 0 0 0 0 0 0 0 0 0 0 0 0 0 0 0 0 1 1 3 5 6 6 6 6 6 6 5 4 1 0 0 0 0 0 0 0 0 0 0 0 0 0
0 0 0 0 0 0 0 0 0 0 0 0 0 0 0 0 0 0 0 0 0 0 0 0 0 2 4 6 6 6 6 6 6 6 5 3 1 0 0 0 0 0 0 0 0 0 0 0 0
0 0 0 0 0 0 0 0 0 0 0 0 0 0 0 0 0 0 0 0 0 1 1 1 1 3 4 5 5 6 6 6 6 6 6 3 1 0 0 0 0 0 0 0 0 0 0 0 0
0 0 0 0 0 0 0 0 0 0 0 0 0 0 0 0 0 0 0 0 1 2 2 2 3 4 5 5 4 5 6 6 6 6 6 3 1 0 0 0 0 0 0 0 0 0 0 0 0
0 0 0 0 0 0 0 0 0 0 0 0 0 0 0 0 0 0 0 0 1 2 3 3 3 4 5 5 4 5 6 6 6 6 6 3 1 0 0 0 0 0 0 0 0 0 0 0 0
0 0 0 0 0 0 0 0 0 0 0 0 0 0 0 0 0 0 0 0 1 2 3 3 3 3 4 4 5 5 5 6 6 6 5 3 1 0 0 0 0 0 0 0 0 0 0 0 0
0 0 0 0 0 0 0 0 0 0 0 0 0 0 0 0 0 0 0 0 1 2 3 3 3 3 3 4 5 5 4 5 6 6 4 3 1 0 0 0 0 0 0 0 0 0 0 0 0
0 0 0 0 0 0 0 0 0 0 0 0 0 0 0 0 0 0 0 0 1 2 3 3 3 3 3 3 4 3 3 4 5 4 4 2 1 0 0 0 0 0 0 0 0 0 0 0 0
0 0 0 0 0 0 0 0 0 0 0 0 0 0 0 0 0 0 0 0 0 1 1 2 3 3 3 3 3 3 3 2 2 2 2 2 1 0 0 0 0 0 0 0 0 0 0 0 0
0 0 0 0 0 0 0 0 0 0 0 0 0 0 0 0 0 0 0 0 0 0 0 1 2 3 3 3 3 3 3 1 0 1 1 1 0 0 0 0 0 0 0 0 0 0 0 0 0
0 0 0 0 0 0 0 0 0 0 0 0 0 0 0 0 0 0 0 0 0 0 0 0 1 1 2 2 2 2 2 1 1 2 2 1 0 0 0 0 0 0 0 0 0 0 0 0 0
0 0 0 0 0 0 0 0 0 0 0 0 0 0 0 0 0 0 0 0 0 0 0 0 0 0 0 0 1 1 1 0 1 2 2 1 0 0 0 0 0 0 0 0 0 0 0 0 0
0 0 0 0 0 0 0 0 0 0 0 0 0 0 0 0 0 0 0 0 0 0 0 0 0 0 0 0 0 0 0 0 0 1 2 2 0 0 0 0 0 0 0 0 0 0 0 0 0
0 0 0 0 0 0 0 0 0 0 0 0 0 0 0 0 0 0 0 0 0 0 0 0 0 0 0 0 0 0 0 0 0 1 2 1 0 0 0 0 0 0 0 0 0 0 0 0 0
0 0 0 0 0 0 0 0 0 0 0 0 0 0 0 0 0 0 0 0 0 0 0 0 0 0 0 0 0 0 0 0 0 1 1 1 0 0 0 0 0 0 0 0 0 0 0 0 0
0 0 0 0 0 0 0 0 0 0 0 0 0 0 0 0 0 0 0 0 0 0 0 0 0 0 0 0 0 0 0 0 0 0 0 0 0 0 0 0 0 0 0 0 0 0 0 0 0
0 0 0 0 0 0 0 0 0 0 0 0 0 0 0 0 0 0 0 0 0 0 0 0 0 0 0 0 0 0 0 0 0 0 0 0 0 0 0 0 0 0 0 0 0 0 0 0 0
0 0 0 0 0 0 0 0 0 0 0 0 0 0 0 0 0 0 0 0 0 0 0 0 0 0 0 0 0 0 0 0 0 0 0 0 0 0 0 0 0 0 0 0 0 0 0 0 0
Wind_Speed
10 8 6 3 3 4 7 5 3 1 3 5 6 5 5 5 4 5 3 4 5 5 6 4 4 6 7 7 7 7 7 7 8 8 8 8 8 9 9 9 9 9 9 10 10 10 9 9 10
8 6 4 3 4 6 6 5 2 2 4 4 3 3 3 4 6 6 3 3 3 5 6 5 5 6 7 7 7 7 7 7 7 7 8 8 8 8 8 8 8 8 9 9 9 9 9 9 9
9 6 3 3 4 5 4 1 4 6 5 3 3 3 3 4 5 4 3 2 3 5 5 5 5 6 7 7 7 7 7 7 7 7 7 7 7 7 7 8 8 8 8 8 9 9 9 9 8
4 3 3 4 7 6 4 2 3 5 3 2 2 4 4 5 4 5 3 3 4 5 5 5 5 5 6 6 6 7 7 7 7 6 6 7 7 7 7 7 7 8 8 8 8 8 8 8 7
3 3 4 6 8 6 2 2 1 1 3 3 2 3 4 4 7 6 3 3 4 4 5 5 5 5 5 6 6 6 6 6 6 6 6 6 6 6 7 7 7 7 7 7 7 7 7 7 7
3 3 5 7 8 5 2 0 1 1 1 1 1 2 3 5 5 4 3 2 3 4 5 5 5 5 5 5 5 5 5 6 6 6 6 5 6 6 7 7 6 7 7 6 6 6 6 6 6
4 4 6 7 6 4 2 1 1 1 1 1 1 1 4 5 4 3 2 2 4 4 4 4 3 3 4 4 4 5 5 5 5 6 5 5 5 5 6 6 7 6 6 6 6 6 6 5 6
4 3 6 7 7 4 1 1 1 2 0 2 2 0 2 4 3 3 3 3 3 3 3 4 3 3 2 2 3 4 4 5 5 5 5 5 5 5 5 6 6 6 5 5 5 5 5 5 4
4 4 6 6 4 1 2 1 1 2 1 1 2 2 5 6 4 4 3 3 2 2 2 2 2 2 2 2 3 3 3 3 4 3 4 3 2 2 3 4 5 5 5 4 5 4 4 4 3
3 4 6 4 3 1 1 0 1 1 2 2 1 3 5 5 4 4 3 2 2 2 1 1 2 2 1 2 2 2 2 2 1 1 2 1 2 2 2 3 4 4 4 4 4 3 3 2 1
2 4 3 3 3 2 2 2 2 3 4 4 3 5 5 5 3 3 2 2 2 2 1 1 1 2 2 1 1 1 1 1 1 2 2 1 2 1 2 1 1 2 2 2 2 1 1 1 1
3 3 3 2 3 2 2 3 3 4 4 1 0 3 4 5 4 4 3 2 2 2 2 1 1 1 2 1 1 1 1 1 1 1 1 1 1 1 1 1 1 1 1 1 1 1 1 1 1
5 4 3 2 1 2 3 4 4 5 3 1 1 3 4 4 4 3 3 2 2 2 2 2 1 2 1 2 1 1 1 1 1 1 1 2 1 1 1 1 1 1 1 1 1 1 2 1 1
1 1 3 3 3 4 4 5 5 6 3 3 3 4 3 3 3 3 2 2 2 2 2 2 2 2 2 2 1 1 1 1 2 1 1 1 1 1 1 1 1 1 1 1 1 1 1 1 1
1 2 4 5 5 4 3 6 8 6 5 5 5 4 4 4 3 3 2 2 2 2 2 2 2 2 2 2 2 1 1 1 1 1 1 1 2 1 1 1 1 0 1 1 1 1 1 1 1
4 4 4 4 5 4 4 8 4 5 7 6 5 5 4 4 3 2 2 2 2 2 2 2 2 2 2 2 1 1 1 1 1 1 1 1 2 2 2 1 1 1 1 1 0 0 1 1 1
5 5 6 4 5 4 6 7 3 4 6 5 5 4 4 3 3 2 1 1 1 2 2 3 3 3 2 2 1 1 1 1 1 1 1 1 1 2 2 1 1 1 1 1 1 1 1 1 1
4 5 5 4 3 4 6 8 6 3 5 5 4 4 4 4 4 3 2 2 1 1 1 2 3 3 2 2 2 1 1 1 1 1 1 2 1 2 2 1 1 1 1 1 1 1 1 0 1
5 5 6 4 3 5 8 10 8 5 4 4 4 4 4 4 3 3 3 2 2 1 1 2 2 3 2 2 2 2 1 1 1 1 1 2 2 2 2 1 1 1 1 1 1 1 1 1 1
5 6 6 5 3 4 6 11 8 6 7 6 5 4 4 4 4 3 3 2 2 2 2 2 2 2 2 2 2 1 1 1 1 1 1 1 2 2 1 1 1 1 1 1 1 1 0 0 1
5 6 5 5 5 4 6 8 7 5 5 5 5 5 4 5 5 5 4 3 2 2 2 2 2 2 2 2 2 1 1 1 1 1 1 1 1 2 1 2 1 1 1 1 0 0 1 1 0
5 3 4 4 4 3 3 6 5 6 5 6 6 6 5 5 4 4 4 3 3 2 2 2 2 2 1 2 3 3 2 2 2 2 1 1 1 1 1 2 2 1 1 1 1 0 0 1 1
2 3 4 5 4 5 4 5 6 4 4 5 4 5 5 5 5 4 3 3 3 2 2 1 2 1 1 1 2 3 2 2 1 2 2 2 1 1 2 2 2 2 1 1 1 1 1 1 1
1 1 2 3 2 6 6 5 6 3 4 2 2 3 3 4 4 3 3 3 3 3 2 2 2 1 1 1 1 3 3 3 2 2 2 2 1 1 1 1 1 2 2 2 2 2 2 1 1
2 1 0 1 3 6 3 5 6 1 2 3 3 3 3 3 3 3 3 3 2 2 2 2 2 1 1 1 1 2 3 3 3 3 2 2 1 1 1 1 1 1 2 2 2 2 2 2 2
4 3 3 3 4 3 2 6 4 2 3 3 3 3 3 3 3 3 3 3 3 2 2 2 2 1 1 1 1 0 1 2 2 2 2 2 2 2 1 1 1 1 1 1 2 2 2 2 2
3 4 3 2 2 3 5 4 2 2 2 3 3 3 2 2 3 3 3 3 2 2 1 1 1 1 1 0 0 1 1 1 2 2 1 1 1 1 2 1 1 1 1 2 2 2 2 2 2
3 1 1 3 3 5 5 6 4 3 3 2 2 2 2 2 2 3 3 3 2 2 1 1 1 1 1 1 0 0 1 1 1 1 1 2 2 2 2 2 1 2 2 2 2 2 3 3 3
3 3 3 3 4 3 4 4 1 3 4 4 3 2 2 2 2 2 2 2 2 2 2 1 1 1 1 1 0 0 0 1 1 1 1 1 1 1 2 2 2 2 2 2 3 3 3 3 3
3 4 4 4 5 4 4 5 2 4 4 3 2 2 2 3 2 2 2 2 2 2 1 1 1 1 1 0 0 0 0 0 1 1 1 1 1 1 2 2 2 2 2 2 3 4 3 4 4
Wind_Direction
298 271 254 247 234 230 237 241 244 104 63 47 34 25 35 34 35 97 98 56 67 97 115 113 77 85 86 84 83 84 86 89 88 84 80 78 81 83 82 79 75 72 69 67 65 62 61 65 66
290 278 256 238 236 233 235 227 199 89 83 84 60 30 56 64 69 93 82 41 76 102 114 116 81 85 86 83 83 84 85 89 90 87 84 78 78 83 85 81 75 73 73 70 67 66 64 67 68
274 261 253 233 238 245 259 44 96 92 81 81 88 43 39 63 78 84 81 82 90 99 109 109 90 89 90 86 84 84 82 85 88 88 87 82 79 80 87 84 77 73 72 71 68 70 68 66 68
265 231 242 242 244 250 279 11 76 111 99 80 99 99 82 51 55 74 93 95 98 98 103 108 92 92 94 91 89 87 84 84 87 89 89 86 81 78 82 85 81 75 72 71 72 69 68 65 67
246 247 228 235 244 251 276 346 24 147 150 139 133 121 105 74 74 88 94 101 103 98 100 113 95 90 93 92 92 92 88 89 88 87 86 86 82 78 76 79 81 78 74 73 75 72 70 66 68
244 243 234 236 238 229 203 59 293 263 131 86 81 136 114 101 89 86 84 98 100 99 100 112 95 87 88 88 89 91 91 89 87 79 77 79 80 78 74 70 74 77 74 72 73 73 72 68 67
254 259 251 254 254 244 205 147 239 224 193 108 313 147 125 104 87 97 98 98 98 99 101 115 125 108 88 88 88 86 88 85 83 77 69 65 70 71 67 63 62 65 70 69 72 73 71 68 66
277 266 251 250 254 257 126 108 354 330 349 56 5 216 124 118 109 106 104 94 90 94 106 123 136 138 136 122 100 92 87 83 79 73 67 61 64 68 63 59 54 56 61 67 72 73 72 69 65
274 245 247 254 258 261 116 120 354 24 4 65 45 29 89 117 122 114 110 101 88 88 94 118 131 144 146 141 126 118 103 89 83 75 69 71 78 78 63 56 53 50 50 60 78 81 75 67 66
238 238 250 301 325 348 50 318 236 210 219 206 133 109 114 128 139 143 146 147 139 130 119 115 123 133 143 142 142 155 138 125 109 94 90 80 67 55 61 62 61 51 44 52 74 83 87 72 81
225 239 261 310 352 350 324 307 292 244 249 239 195 161 150 154 159 160 172 172 171 163 143 104 123 144 141 134 140 130 129 120 101 74 54 64 79 71 62 72 92 83 61 53 68 92 91 83 70
247 272 292 304 356 338 298 289 287 276 270 316 143 160 166 171 174 183 191 192 177 160 160 145 142 153 151 138 135 124 116 125 112 93 69 65 73 68 56 50 49 75 73 43 32 1 32 60 67
237 249 280 305 332 304 290 269 275 266 259 242 179 166 186 189 189 193 193 181 171 170 169 164 165 163 156 142 138 127 127 125 119 106 89 71 86 90 79 59 48 44 58 63 0 11 19 27 43
223 233 253 252 247 253 249 258 250 250 216 198 199 200 200 200 194 197 199 185 177 172 173 176 179 167 153 151 146 140 136 126 117 111 98 86 98 94 92 83 60 34 34 50 11 4 12 357 17
188 238 250 233 226 221 238 263 232 225 200 210 213 213 210 205 197 196 191 193 187 187 184 182 181 170 161 157 154 137 130 125 124 123 114 87 87 97 99 102 84 39 24 42 29 13 30 11 10
227 234 234 212 208 199 219 259 221 189 192 210 215 217 213 207 192 192 185 188 190 187 183 180 173 172 168 152 153 148 132 136 137 130 125 101 85 86 92 90 77 29 37 60 60 34 47 29 359
213 233 237 224 204 203 220 258 234 186 195 209 209 207 203 201 192 175 164 180 187 185 181 168 160 164 169 160 148 150 146 148 142 127 125 113 98 96 97 100 71 54 47 38 38 44 59 29 347
232 244 251 243 208 225 236 254 261 209 202 216 213 211 205 206 197 168 167 162 161 162 158 155 151 155 163 161 150 149 143 134 120 117 120 115 108 99 99 100 81 67 69 39 33 33 50 22 332
287 277 274 273 258 246 246 257 255 223 217 220 215 210 201 197 167 147 148 144 146 146 158 156 148 161 154 153 162 168 175 168 146 121 96 106 104 106 112 104 113 94 95 74 42 38 62 33 16
274 275 278 287 289 273 266 263 251 220 220 218 215 209 198 183 165 157 149 149 160 170 170 161 156 151 162 160 166 164 155 152 155 138 128 114 111 110 119 117 122 120 124 86 65 70 56 40 38
256 261 267 282 304 268 282 274 229 208 212 216 221 210 200 194 180 173 169 174 167 168 167 158 153 152 155 148 133 118 122 129 140 152 151 127 128 131 127 140 135 141 142 157 166 144 72 177 300
257 287 285 277 285 271 237 279 237 197 204 215 219 214 204 196 184 175 169 166 161 159 132 133 138 140 150 159 159 164 166 178 190 182 161 134 140 151 143 151 155 152 151 167 189 235 175 149 212
265 324 286 271 272 278 247 261 269 176 203 223 218 208 196 179 171 164 160 155 143 128 125 132 131 140 158 158 171 173 175 175 160 159 157 161 166 161 150 160 168 167 174 186 188 193 182 174 197
234 280 271 257 257 260 233 232 267 205 195 180 169 167 155 138 140 138 136 118 110 111 120 130 130 140 155 168 182 185 183 173 167 173 176 175 169 165 150 149 174 182 182 188 200 201 200 207 214
220 180 313 259 231 245 197 220 250 209 122 126 145 150 135 127 132 132 134 130 121 120 127 131 137 150 164 179 185 199 191 187 188 182 186 182 171 167 182 151 184 195 195 196 199 197 209 208 212
217 210 196 217 239 266 232 231 238 110 85 76 84 109 120 131 136 140 144 141 135 131 128 136 144 152 154 180 185 191 187 179 183 176 182 193 183 184 195 191 201 207 211 208 201 206 215 214 219
216 220 248 265 282 275 243 243 263 138 101 100 97 101 118 136 138 142 138 131 129 127 126 131 144 135 122 131 154 165 183 178 180 177 179 192 182 181 193 201 217 220 219 215 199 215 224 223 224
263 234 185 202 221 247 251 242 235 186 189 154 153 166 163 136 137 127 123 117 114 115 105 99 108 116 91 79 83 144 171 176 176 164 183 199 192 192 191 194 215 226 227 225 210 220 224 224 231
206 220 226 233 238 232 252 256 42 148 156 158 175 166 157 147 136 124 107 105 99 93 91 85 82 86 75 55 37 116 164 165 169 181 199 201 192 190 204 204 214 227 231 233 222 230 225 228 236
238 229 211 212 239 238 259 265 55 74 92 109 115 105 99 109 94 86 87 92 89 83 74 64 47 49 40 38 28 139 45 169 193 196 209 210 205 203 216 218 218 227 235 236 231 231 234 231 234